DateTimeUTC,F1_A11,F1_S11,BsB_S11,BsG_S11,BsR_S11,BbsB_S11,BbsG_S11,BbsR_S11,BaB_A11,BaG_A11,BaR_A11,Tu_S11,T_S11,Uu_S11,U_S11,P_S11,T1_A11
2021-02-26T12:00:00Z,00000200,21000000,,,,,,,0000.49,0000.32,0000.38,16.6,24.3,,00.0,0638.8,31.0
2021-02-26T12:01:00Z,00000200,21000000,,,,,,,-000.30,-000.23,-000.26,16.6,24.3,,00.0,0638.8,31.0
2021-02-26T12:02:00Z,00000200,21000000,,,,,,,0000.14,0000.18,0000.22,16.6,24.3,,00.0,0638.8,31.0
2021-02-26T12:03:00Z,00000200,61000000,,,,,,,0000.39,0000.48,0000.11,16.6,24.3,,00.0,0638.8,31.0
2021-02-26T12:04:00Z,00000200,41000000,-000.27,0000.07,0000.19,-000.17,-000.15,-000.01,-000.17,-000.12,0000.05,17.0,24.2,,00.0,0639.6,31.0
2021-02-26T12:05:00Z,00000200,01000000,0000.04,-000.02,-000.06,-000.06,0000.22,0000.20,0000.32,0000.27,-000.00,17.1,24.2,,00.0,0639.7,31.0
2021-02-26T12:06:00Z,00000200,01000000,0000.22,0000.18,0000.17,-000.20,-000.06,0000.06,0000.28,0000.10,0000.04,17.1,24.1,,00.0,0639.6,31.0
2021-02-26T12:07:00Z,00000200,01000000,0000.29,-000.14,-000.06,0000.16,0000.01,0000.14,-000.38,-000.38,-000.03,17.1,24.1,,00.0,0639.7,31.0
2021-02-26T12:08:00Z,00000200,01000000,0000.15,0000.17,-000.05,0000.05,0000.03,0000.05,0000.25,0000.57,0000.23,17.0,24.1,,00.0,0639.7,31.0
2021-02-26T12:09:00Z,00000200,01000000,0000.26,0000.05,0000.05,-000.21,0000.33,0000.38,-000.23,-000.06,-000.16,17.0,24.1,,00.0,0639.7,31.0
2021-02-26T12:10:00Z,00000200,01000000,0000.74,0000.20,0000.12,0000.03,0000.01,-000.01,0000.25,0000.18,0000.25,17.0,24.1,,00.0,0639.7,31.0
2021-02-26T12:11:00Z,00000200,01000000,-000.21,0000.16,0000.04,-000.10,0000.05,0000.01,0000.14,-000.30,-000.08,16.9,24.1,,00.0,0639.8,31.0
2021-02-26T12:12:00Z,00000200,01000000,0000.17,0000.03,0000.17,0000.26,-000.05,0000.18,0000.06,0000.41,0000.00,16.9,24.0,,00.0,0639.8,31.0
2021-02-26T12:13:00Z,00000200,01000000,0000.24,-000.16,0000.47,-000.16,-000.03,0000.16,0000.08,-000.27,0000.05,16.9,24.0,,00.0,0639.8,30.9
2021-02-26T12:14:00Z,00000200,01000000,0000.43,-000.11,0000.11,0000.04,0000.17,0000.16,-000.28,-000.46,-000.07,16.8,24.0,,00.0,0639.8,31.0
2021-02-26T12:15:00Z,00000200,01000000,-000.24,0000.09,0000.11,0000.19,0000.20,0000.32,0000.11,0000.29,-000.15,16.8,24.0,,00.0,0639.8,31.0
2021-02-26T12:16:00Z,00000200,01000000,-000.16,-000.03,0000.23,0000.05,-000.25,0000.00,0000.18,-000.05,0000.31,16.9,24.0,,00.0,0639.8,31.0
2021-02-26T12:17:00Z,00000200,01000000,-000.46,-000.21,0000.39,0000.31,0000.10,0000.26,0000.00,0000.20,-000.15,17.0,24.0,,00.0,0639.8,31.0
2021-02-26T12:18:00Z,00000200,01000000,-000.51,0000.03,-000.03,0000.04,-000.00,-000.03,0000.09,0000.01,0000.14,17.1,24.0,,00.0,0639.8,31.0
2021-02-26T12:19:00Z,00000200,01000000,0000.73,-000.09,0000.21,0000.42,0000.04,0000.02,0000.01,0000.07,0000.07,17.2,24.1,,00.0,0639.8,31.0
2021-02-26T12:20:00Z,00000200,01000000,-000.36,0000.05,-000.09,0000.08,-000.10,0000.03,0000.11,0000.13,-000.00,17.2,24.1,,00.0,0639.7,31.0
2021-02-26T12:21:00Z,00000200,01000000,0000.06,-000.01,0000.09,-000.11,0000.04,0000.02,0000.02,0000.28,0000.47,17.3,24.2,,00.0,0639.6,31.0
2021-02-26T12:22:00Z,00000200,01000000,0000.07,-000.03,-000.17,0000.10,-000.17,0000.15,0000.34,0000.17,-000.27,17.4,24.2,,00.0,0639.6,31.1
2021-02-26T12:23:00Z,00000200,01000000,0000.27,0000.09,0000.11,-000.45,0000.06,0000.14,0000.32,0000.57,0000.25,17.4,24.2,,00.0,0639.5,31.0
2021-02-26T12:24:00Z,00000200,01000000,0000.09,0000.11,-000.02,0000.14,0000.03,0000.14,0000.31,0000.22,0000.27,17.4,24.2,,00.0,0639.5,31.0
2021-02-26T12:25:00Z,00000200,01000000,0000.38,0000.14,0000.06,0000.25,0000.22,-000.01,-000.12,0000.00,-000.09,17.4,24.2,,00.0,0639.5,31.0
2021-02-26T12:26:00Z,00000200,01000000,-000.26,0000.01,-000.09,0000.35,0000.02,-000.03,-000.08,-000.09,0000.15,17.4,24.2,,00.0,0639.5,31.0
2021-02-26T12:27:00Z,00000200,01000000,-000.28,0000.24,-000.19,0000.34,0000.01,0000.13,0000.59,0000.59,0000.46,17.3,24.2,,00.0,0639.5,31.0
2021-02-26T12:28:00Z,00000200,01000000,0000.54,0000.19,0000.15,0000.11,-000.01,-000.03,-000.09,-000.15,-000.29,17.3,24.2,,00.0,0639.6,31.0
2021-02-26T12:29:00Z,00000200,01000000,0000.58,0000.26,0000.20,0000.63,-000.07,0000.20,-000.05,-000.39,-000.32,17.3,24.2,,00.0,0639.6,31.0
2021-02-26T12:30:00Z,00000200,01000000,0000.57,0000.05,0000.22,-000.48,0000.13,-000.04,0000.21,0000.42,-000.04,17.3,24.2,,00.0,0639.6,31.0
2021-02-26T12:31:00Z,00000200,01000000,0000.48,-000.04,0000.05,0000.19,-000.05,-000.13,0000.25,-000.14,0000.31,17.3,24.1,,00.0,0639.5,31.0
2021-02-26T12:32:00Z,00000200,01000000,-000.60,0000.24,0000.09,-000.21,0000.04,-000.12,0000.20,0000.75,0000.54,17.4,24.2,,00.0,0639.5,31.0
2021-02-26T12:33:00Z,00000200,01000000,0000.11,0000.03,0000.07,0000.05,-000.12,-000.05,0000.27,-000.04,-000.09,17.4,24.2,,00.0,0639.5,31.0
2021-02-26T12:34:00Z,00000200,01000000,0000.38,-000.02,-000.11,-000.06,-000.07,-000.09,-000.15,-000.27,-000.14,17.4,24.2,,00.0,0639.5,31.0
2021-02-26T12:35:00Z,00000200,01000000,-000.06,-000.17,0000.20,-000.10,-000.02,-000.16,0000.36,0000.46,0000.37,17.4,24.2,,00.0,0639.5,31.0
2021-02-26T12:36:00Z,00000200,01000000,-000.16,-000.13,-000.11,-000.18,0000.07,-000.11,-000.15,-000.08,-000.14,17.4,24.2,,00.0,0639.5,31.0
2021-02-26T12:37:00Z,00000200,01000000,0000.68,0000.23,0000.20,0000.21,-000.09,0000.10,0000.06,0000.18,0000.06,17.3,24.2,,00.0,0639.4,31.0
2021-02-26T12:38:00Z,00000200,01000000,0000.32,-000.14,0000.06,0000.09,-000.09,0000.10,0000.22,0000.03,-000.01,17.3,24.2,,00.0,0639.4,31.0
2021-02-26T12:39:00Z,00000200,01000000,0000.03,0000.19,0000.20,0000.27,-000.06,-000.13,-000.23,0000.11,0000.10,17.3,24.2,,00.0,0639.4,31.0
2021-02-26T12:40:00Z,00000200,01000000,0000.32,-000.04,0000.10,0000.13,0000.12,0000.08,0000.41,-000.08,-000.05,17.2,24.2,,00.0,0639.4,31.0
2021-02-26T12:41:00Z,00000200,01000000,0000.13,0000.07,0000.07,0000.28,-000.08,-000.21,0000.05,0000.26,0000.42,17.2,24.1,,00.0,0639.4,31.0
2021-02-26T12:42:00Z,00000200,01000000,0000.23,0000.18,-000.07,0000.07,-000.16,0000.04,0000.44,0000.11,-000.10,17.2,24.1,,00.0,0639.4,31.0
2021-02-26T12:43:00Z,00000200,01000000,-000.13,0000.08,0000.04,-000.21,0000.01,0000.24,0000.20,0000.01,0000.31,17.1,24.1,,00.0,0639.4,31.0
2021-02-26T12:44:00Z,00000200,01000000,0000.17,-000.04,0000.07,-000.24,0000.06,0000.15,-000.24,0000.01,-000.16,17.1,24.1,,00.0,0639.4,30.9
2021-02-26T12:45:00Z,00000200,01000000,-000.00,0000.10,-000.02,0000.29,0000.01,0000.12,0000.27,0000.43,0000.01,17.1,24.1,,00.0,0639.4,31.0
2021-02-26T12:46:00Z,00000200,01000000,0000.55,0000.06,-000.02,-000.10,0000.08,0000.12,0000.17,-000.03,-000.03,17.2,24.1,,00.0,0639.4,31.0
2021-02-26T12:47:00Z,00000200,01000000,0000.22,0000.20,-000.03,0000.11,-000.13,-000.23,0000.59,0000.29,0000.55,17.3,24.1,,00.0,0639.3,31.0
2021-02-26T12:48:00Z,00000200,01000000,0000.93,0000.29,-000.10,-000.24,0000.11,0000.10,-000.09,0000.63,-000.06,17.4,24.2,,00.0,0639.3,31.0
2021-02-26T12:49:00Z,00000200,01000000,0000.23,0000.03,0000.09,0000.07,0000.17,-000.01,-000.17,-000.27,0000.05,17.4,24.2,,00.0,0639.3,31.0
2021-02-26T12:50:00Z,00000200,01000000,0000.41,-000.09,0000.22,0000.17,-000.02,0000.09,0000.07,0000.02,-000.30,17.5,24.2,,00.0,0639.3,31.0
2021-02-26T12:51:00Z,00000200,01000000,0000.11,-000.03,0000.17,0000.07,0000.13,0000.05,-000.12,-000.44,0000.05,17.5,24.2,,00.0,0639.4,31.0
2021-02-26T12:52:00Z,00000200,01000000,0000.55,0000.07,0000.10,0000.08,0000.09,0000.03,0000.19,0000.17,0000.10,17.4,24.2,,00.0,0639.4,31.0
2021-02-26T12:53:00Z,00000200,01000000,-000.87,0000.34,0000.36,-000.11,-000.08,0000.23,-000.47,-000.26,-000.28,17.3,24.2,,00.0,0639.4,31.0
2021-02-26T12:54:00Z,00000200,01000000,-000.04,0000.21,-000.18,-000.04,0000.14,0000.09,0000.12,-000.41,-000.01,17.3,24.2,,00.0,0639.4,31.0
2021-02-26T12:55:00Z,00000200,01000000,0000.43,0000.24,0000.09,0000.04,-000.13,0000.32,-000.15,0000.15,0000.08,17.2,24.1,,00.0,0639.4,31.0
2021-02-26T12:56:00Z,00000200,01000000,-000.12,0000.09,0000.09,0000.64,0000.03,0000.09,0000.10,0000.17,-000.05,17.2,24.1,,00.0,0639.4,30.9
2021-02-26T12:57:00Z,00000200,41000000,,,,,,,-000.87,-000.86,-000.79,17.2,24.1,,00.0,0639.5,30.9
2021-02-26T12:58:00Z,00000200,61000000,,,,,,,0000.14,0000.44,0000.46,16.7,24.2,,00.0,0638.5,31.0
2021-02-26T12:59:00Z,00000200,21000000,,,,,,,0000.09,-000.32,-000.27,16.7,24.3,,00.0,0638.5,30.9
